Location: Winthrop
(48.4780°N, 120.1850°W)
Time: 19:49:48
(UTC-08:00)

ISS - Visible Passes

Search period start: 05 December 2021 00:00
Search period end: 15 December 2021 00:00
Orbit: 417 x 422 km, 51.6° (Epoch: 06 December)

Date Brightness Start Highest point End Pass type
(mag) Time Alt. Az. Time Alt. Az. Time Alt. Az.
05 Dec -3.2 17:31:47 10° WNW 17:35:07 57° SSW 17:38:07 12° SE visible
05 Dec -0.5 19:10:11 10° WSW 19:11:08 11° SW 19:11:08 11° SW visible
06 Dec -3.6 16:44:21 10° WNW 16:47:46 80° SSW 16:51:08 10° ESE visible
06 Dec -1.0 18:21:50 10° W 18:24:10 17° SW 18:26:30 10° S visible
07 Dec -1.5 17:34:04 10° W 17:36:57 26° SW 17:39:49 10° SSE visible
08 Dec -2.1 16:46:29 10° WNW 16:49:40 38° SSW 16:52:50 10° SE visible
09 Dec -0.3 17:37:26 10° WSW 17:38:33 11° SW 17:39:39 10° SSW visible
10 Dec -0.6 16:49:02 10° W 16:51:21 17° SW 16:53:40 10° S visible
